{"data":{"norad_id":52383,"epoch":"2026-05-25T03:04:30.929664Z","epoch_age_seconds":57278,"freshness":"FRESH","line1":"1 52383U 22045BE  26145.12813576  .00000127  00000+0  26036-4 0  9995","line2":"2 52383  53.2131 196.0048 0001085  83.3867 276.7249 15.08835530227607","mean_motion":15.0883553,"eccentricity":0.0001085,"inclination_deg":53.2131,"raan_deg":196.0048,"arg_perigee_deg":83.3867,"mean_anomaly_deg":276.7249,"bstar":2.6036e-5,"rev_number":22760,"period_min":95.437837416249,"perigee_km":539.00646049494,"apogee_km":540.50764350423,"semimajor_km":6917.8940519996,"source":"CELESTRAK","updated_at":"2026-05-25T13:38:17.123341Z"}}